Time,TemperatureF,DewpointF,PressureIn,WindDirection,WindDirectionDegrees,WindSpeedMPH,WindSpeedGustMPH,Humidity,HourlyPrecipIn,Conditions,Clouds,dailyrainin,SoftwareType,DateUTC
2013-10-08 00:04:00,57.9,46.9,29.80,SSE,158,0.0,0.0,67,0.00,,,0.00,WUHU216HW,2013-10-08 07:04:00,
2013-10-08 00:09:00,57.7,46.8,29.80,SE,135,0.0,0.0,67,0.00,,,0.00,WUHU216HW,2013-10-08 07:09:00,
2013-10-08 00:14:00,57.7,46.8,29.81,SSE,158,0.6,0.6,67,0.00,,,0.00,WUHU216HW,2013-10-08 07:14:00,
2013-10-08 00:20:00,57.3,46.8,29.80,SE,135,0.0,0.8,68,0.00,,,0.00,WUHU216HW,2013-10-08 07:20:00,
2013-10-08 00:25:00,57.3,46.8,29.80,SSE,158,0.0,0.8,68,0.00,,,0.00,WUHU216HW,2013-10-08 07:25:00,
2013-10-08 00:30:00,57.3,46.8,29.79,SSE,158,0.0,0.0,68,0.00,,,0.00,WUHU216HW,2013-10-08 07:30:00,
2013-10-08 00:35:00,57.0,46.9,29.80,SSE,158,0.0,0.0,69,0.00,,,0.00,WUHU216HW,2013-10-08 07:35:00,
2013-10-08 00:40:00,57.0,47.3,29.80,South,180,0.0,0.0,70,0.00,,,0.00,WUHU216HW,2013-10-08 07:40:00,
2013-10-08 00:45:00,56.8,47.1,29.80,SSE,158,0.0,0.0,70,0.00,,,0.00,WUHU216HW,2013-10-08 07:45:00,
2013-10-08 00:50:00,56.8,47.1,29.80,South,180,0.0,0.0,70,0.00,,,0.00,WUHU216HW,2013-10-08 07:50:00,
2013-10-08 00:55:00,56.6,46.8,29.80,South,180,0.0,0.0,70,0.00,,,0.00,WUHU216HW,2013-10-08 07:55:00,
2013-10-08 01:00:00,56.4,46.8,29.80,South,180,0.0,0.0,70,0.00,,,0.00,WUHU216HW,2013-10-08 08:00:00,
2013-10-08 01:05:00,56.4,47.1,29.80,SE,135,0.0,0.0,71,0.00,,,0.00,WUHU216HW,2013-10-08 08:05:00,
2013-10-08 01:10:00,56.3,47.0,29.79,SSE,158,0.0,0.0,71,0.00,,,0.00,WUHU216HW,2013-10-08 08:10:00,
2013-10-08 01:15:00,56.1,47.1,29.79,SSE,158,0.0,0.0,72,0.00,,,0.00,WUHU216HW,2013-10-08 08:15:00,
2013-10-08 01:20:00,56.1,47.1,29.79,SE,135,0.0,0.0,72,0.00,,,0.00,WUHU216HW,2013-10-08 08:20:00,
2013-10-08 01:26:00,56.1,47.1,29.80,SSE,158,0.0,0.0,72,0.00,,,0.00,WUHU216HW,2013-10-08 08:26:00,
2013-10-08 01:31:00,55.9,47.0,29.79,SSE,158,0.0,0.0,72,0.00,,,0.00,WUHU216HW,2013-10-08 08:31:00,
2013-10-08 01:36:00,55.9,47.0,29.79,SSE,158,0.0,0.0,72,0.00,,,0.00,WUHU216HW,2013-10-08 08:36:00,
2013-10-08 01:41:00,55.9,47.0,29.79,SSE,158,0.0,0.0,72,0.00,,,0.00,WUHU216HW,2013-10-08 08:41:00,
2013-10-08 01:46:00,55.9,47.0,29.79,SSE,158,0.0,0.0,72,0.00,,,0.00,WUHU216HW,2013-10-08 08:46:00,
2013-10-08 01:51:00,55.9,47.3,29.79,SE,135,0.0,0.0,73,0.00,,,0.00,WUHU216HW,2013-10-08 08:51:00,
2013-10-08 01:56:00,55.9,47.3,29.79,SE,135,0.0,0.0,73,0.00,,,0.00,WUHU216HW,2013-10-08 08:56:00,
2013-10-08 02:01:00,55.9,47.3,29.79,SSE,158,0.0,0.0,73,0.00,,,0.00,WUHU216HW,2013-10-08 09:01:00,
2013-10-08 02:06:00,55.9,47.3,29.79,SSE,158,0.0,0.0,73,0.00,,,0.00,WUHU216HW,2013-10-08 09:06:00,
2013-10-08 02:11:00,55.9,47.3,29.79,SE,135,0.0,0.0,73,0.00,,,0.00,WUHU216HW,2013-10-08 09:11:00,
2013-10-08 02:16:00,55.9,47.3,29.79,SE,135,0.0,0.0,73,0.00,,,0.00,WUHU216HW,2013-10-08 09:16:00,
2013-10-08 02:21:00,55.9,47.0,29.80,SE,135,0.0,0.0,72,0.00,,,0.00,WUHU216HW,2013-10-08 09:21:00,
2013-10-08 02:26:00,55.7,46.8,29.79,SE,135,0.0,0.0,72,0.00,,,0.00,WUHU216HW,2013-10-08 09:26:00,
2013-10-08 02:32:00,55.7,46.8,29.78,SE,135,0.0,0.0,72,0.00,,,0.00,WUHU216HW,2013-10-08 09:32:00,
2013-10-08 02:37:00,55.7,46.8,29.79,SE,135,0.0,0.0,72,0.00,,,0.00,WUHU216HW,2013-10-08 09:37:00,
2013-10-08 02:42:00,55.5,46.7,29.79,SE,135,0.0,0.0,72,0.00,,,0.00,WUHU216HW,2013-10-08 09:42:00,
2013-10-08 02:47:00,55.5,46.7,29.78,SE,135,0.0,0.0,72,0.00,,,0.00,WUHU216HW,2013-10-08 09:47:00,
2013-10-08 02:52:00,55.5,46.7,29.78,SE,135,0.0,0.0,72,0.00,,,0.00,WUHU216HW,2013-10-08 09:52:00,
2013-10-08 02:57:00,55.2,46.3,29.78,SE,135,0.0,0.0,72,0.00,,,0.00,WUHU216HW,2013-10-08 09:57:00,
2013-10-08 03:02:00,55.2,46.3,29.78,SE,135,0.0,0.0,72,0.00,,,0.00,WUHU216HW,2013-10-08 10:02:00,
2013-10-08 03:07:00,55.2,46.3,29.78,SE,135,0.0,0.0,72,0.00,,,0.00,WUHU216HW,2013-10-08 10:07:00,
2013-10-08 03:12:00,55.2,46.3,29.78,SE,135,0.0,0.0,72,0.00,,,0.00,WUHU216HW,2013-10-08 10:12:00,
2013-10-08 03:17:00,55.0,46.1,29.78,SE,135,0.0,0.0,72,0.00,,,0.00,WUHU216HW,2013-10-08 10:17:00,
2013-10-08 03:22:00,55.0,46.1,29.78,SE,135,0.0,0.0,72,0.00,,,0.00,WUHU216HW,2013-10-08 10:22:00,
2013-10-08 03:27:00,55.0,46.1,29.78,SE,135,0.0,0.0,72,0.00,,,0.00,WUHU216HW,2013-10-08 10:27:00,
2013-10-08 03:32:00,55.0,46.1,29.78,SE,135,0.0,0.0,72,0.00,,,0.00,WUHU216HW,2013-10-08 10:32:00,
2013-10-08 03:37:00,55.0,46.1,29.78,SE,135,0.0,0.0,72,0.00,,,0.00,WUHU216HW,2013-10-08 10:37:00,
2013-10-08 03:43:00,55.0,46.1,29.78,SE,135,0.0,0.0,72,0.00,,,0.00,WUHU216HW,2013-10-08 10:43:00,
2013-10-08 03:48:00,54.8,46.0,29.78,SE,135,0.0,0.0,72,0.00,,,0.00,WUHU216HW,2013-10-08 10:48:00,
2013-10-08 03:53:00,54.8,46.0,29.79,SE,135,0.0,0.0,72,0.00,,,0.00,WUHU216HW,2013-10-08 10:53:00,
2013-10-08 03:58:00,54.8,46.0,29.79,SE,135,0.0,0.0,72,0.00,,,0.00,WUHU216HW,2013-10-08 10:58:00,
2013-10-08 04:03:00,54.8,46.3,29.79,SE,135,0.0,0.0,73,0.00,,,0.00,WUHU216HW,2013-10-08 11:03:00,
2013-10-08 04:08:00,54.6,46.1,29.78,SE,135,0.0,0.0,73,0.00,,,0.00,WUHU216HW,2013-10-08 11:08:00,
2013-10-08 04:13:00,54.6,46.1,29.78,SE,135,0.0,0.0,73,0.00,,,0.00,WUHU216HW,2013-10-08 11:13:00,
2013-10-08 04:18:00,54.6,46.1,29.79,SE,135,0.0,0.0,73,0.00,,,0.00,WUHU216HW,2013-10-08 11:18:00,
2013-10-08 04:23:00,54.6,45.8,29.79,SE,135,0.0,0.0,72,0.00,,,0.00,WUHU216HW,2013-10-08 11:23:00,
2013-10-08 04:28:00,54.6,45.8,29.79,SE,135,0.0,0.0,72,0.00,,,0.00,WUHU216HW,2013-10-08 11:28:00,
2013-10-08 04:33:00,54.5,45.6,29.79,SE,135,0.0,0.0,72,0.00,,,0.00,WUHU216HW,2013-10-08 11:33:00,
2013-10-08 04:38:00,54.3,45.8,29.79,SE,135,0.0,0.0,73,0.00,,,0.00,WUHU216HW,2013-10-08 11:38:00,
2013-10-08 04:43:00,54.5,46.0,29.79,SE,135,0.0,0.0,73,0.00,,,0.00,WUHU216HW,2013-10-08 11:43:00,
2013-10-08 04:49:00,54.3,46.1,29.79,SE,135,0.0,0.0,74,0.00,,,0.00,WUHU216HW,2013-10-08 11:49:00,
2013-10-08 04:54:00,54.3,46.1,29.78,SE,135,0.0,0.0,74,0.00,,,0.00,WUHU216HW,2013-10-08 11:54:00,
2013-10-08 04:59:00,54.3,46.1,29.78,SE,135,0.0,0.0,74,0.00,,,0.00,WUHU216HW,2013-10-08 11:59:00,
2013-10-08 05:04:00,54.3,46.1,29.78,SE,135,0.0,0.0,74,0.00,,,0.00,WUHU216HW,2013-10-08 12:04:00,
2013-10-08 05:09:00,54.3,46.1,29.78,SE,135,0.0,0.0,74,0.00,,,0.00,WUHU216HW,2013-10-08 12:09:00,
2013-10-08 05:14:00,54.3,46.1,29.78,SE,135,0.0,0.0,74,0.00,,,0.00,WUHU216HW,2013-10-08 12:14:00,
2013-10-08 05:19:00,54.1,46.0,29.78,SE,135,0.0,0.0,74,0.00,,,0.00,WUHU216HW,2013-10-08 12:19:00,
2013-10-08 05:24:00,54.1,46.0,29.78,SE,135,0.0,0.0,74,0.00,,,0.00,WUHU216HW,2013-10-08 12:24:00,
2013-10-08 05:29:00,54.1,46.0,29.77,SE,135,0.0,0.0,74,0.00,,,0.00,WUHU216HW,2013-10-08 12:29:00,
2013-10-08 05:34:00,53.9,45.8,29.78,SE,135,0.0,0.0,74,0.00,,,0.00,WUHU216HW,2013-10-08 12:34:00,
2013-10-08 05:39:00,53.9,45.8,29.78,SE,135,0.0,0.0,74,0.00,,,0.00,WUHU216HW,2013-10-08 12:39:00,
2013-10-08 05:44:00,53.9,45.8,29.78,SE,135,0.0,0.0,74,0.00,,,0.00,WUHU216HW,2013-10-08 12:44:00,
2013-10-08 05:49:00,53.9,45.8,29.78,SE,135,0.0,0.0,74,0.00,,,0.00,WUHU216HW,2013-10-08 12:49:00,
2013-10-08 05:54:00,53.9,45.8,29.78,SE,135,0.0,0.0,74,0.00,,,0.00,WUHU216HW,2013-10-08 12:54:00,
2013-10-08 06:00:00,53.7,45.8,29.78,SE,135,0.0,0.0,74,0.00,,,0.00,WUHU216HW,2013-10-08 13:00:00,
2013-10-08 06:05:00,53.7,45.6,29.78,SE,135,0.0,0.0,74,0.00,,,0.00,WUHU216HW,2013-10-08 13:05:00,
2013-10-08 06:10:00,53.7,45.6,29.78,SE,135,0.0,0.0,74,0.00,,,0.00,WUHU216HW,2013-10-08 13:10:00,
2013-10-08 06:15:00,53.7,45.3,29.78,SE,135,0.0,0.0,73,0.00,,,0.00,WUHU216HW,2013-10-08 13:15:00,
2013-10-08 06:20:00,53.7,45.3,29.79,SE,135,0.0,0.0,73,0.00,,,0.00,WUHU216HW,2013-10-08 13:20:00,
2013-10-08 06:25:00,53.6,44.9,29.79,SE,135,0.0,0.0,73,0.00,,,0.00,WUHU216HW,2013-10-08 13:25:00,
2013-10-08 06:30:00,53.4,44.9,29.79,SE,135,0.0,0.0,73,0.00,,,0.00,WUHU216HW,2013-10-08 13:30:00,
2013-10-08 06:35:00,53.4,45.3,29.79,SE,135,0.0,0.0,74,0.00,,,0.00,WUHU216HW,2013-10-08 13:35:00,
2013-10-08 06:40:00,53.2,45.1,29.80,SE,135,0.0,0.0,74,0.00,,,0.00,WUHU216HW,2013-10-08 13:40:00,
2013-10-08 06:45:00,53.2,45.1,29.80,SE,135,0.0,0.0,74,0.00,,,0.00,WUHU216HW,2013-10-08 13:45:00,
2013-10-08 06:50:00,53.2,45.1,29.80,SE,135,0.0,0.0,74,0.00,,,0.00,WUHU216HW,2013-10-08 13:50:00,
2013-10-08 06:55:00,53.2,45.1,29.80,SE,135,0.0,0.0,74,0.00,,,0.00,WUHU216HW,2013-10-08 13:55:00,
2013-10-08 07:01:00,53.0,44.9,29.80,SE,135,0.0,0.0,74,0.00,,,0.00,WUHU216HW,2013-10-08 14:01:00,
2013-10-08 07:06:00,52.8,44.8,29.80,SE,135,0.0,0.0,74,0.00,,,0.00,WUHU216HW,2013-10-08 14:06:00,
2013-10-08 07:11:00,52.8,44.8,29.79,SE,135,0.0,0.0,74,0.00,,,0.00,WUHU216HW,2013-10-08 14:11:00,
2013-10-08 07:16:00,52.8,45.1,29.79,SE,135,0.0,0.0,75,0.00,,,0.00,WUHU216HW,2013-10-08 14:16:00,
2013-10-08 07:21:00,52.8,45.1,29.79,SE,135,0.0,0.0,75,0.00,,,0.00,WUHU216HW,2013-10-08 14:21:00,
2013-10-08 07:26:00,52.8,45.1,29.80,SE,135,0.0,0.0,75,0.00,,,0.00,WUHU216HW,2013-10-08 14:26:00,
2013-10-08 07:31:00,52.8,45.1,29.80,SE,135,0.0,0.0,75,0.00,,,0.00,WUHU216HW,2013-10-08 14:31:00,
2013-10-08 07:36:00,52.8,45.5,29.79,SE,135,0.0,0.0,76,0.00,,,0.00,WUHU216HW,2013-10-08 14:36:00,
2013-10-08 07:41:00,52.8,45.5,29.80,SE,135,0.0,0.0,76,0.00,,,0.00,WUHU216HW,2013-10-08 14:41:00,
2013-10-08 07:46:00,52.8,45.5,29.79,SE,135,0.0,0.0,76,0.00,,,0.00,WUHU216HW,2013-10-08 14:46:00,
2013-10-08 07:51:00,52.8,45.5,29.80,SE,135,0.0,0.0,76,0.00,,,0.00,WUHU216HW,2013-10-08 14:51:00,
2013-10-08 07:56:00,52.8,45.5,29.79,SE,135,0.0,0.0,76,0.00,,,0.00,WUHU216HW,2013-10-08 14:56:00,
2013-10-08 08:01:00,52.8,45.5,29.79,SE,135,0.0,0.0,76,0.00,,,0.00,WUHU216HW,2013-10-08 15:01:00,
2013-10-08 08:07:00,53.2,45.8,29.79,SE,135,0.0,0.0,76,0.00,,,0.00,WUHU216HW,2013-10-08 15:07:00,
2013-10-08 08:12:00,53.2,46.2,29.79,SE,135,0.0,0.0,77,0.00,,,0.00,WUHU216HW,2013-10-08 15:12:00,
2013-10-08 08:17:00,53.2,46.2,29.79,SE,135,0.0,0.0,77,0.00,,,0.00,WUHU216HW,2013-10-08 15:17:00,
2013-10-08 08:22:00,53.4,46.4,29.80,SE,135,0.0,0.0,77,0.00,,,0.00,WUHU216HW,2013-10-08 15:22:00,
2013-10-08 08:27:00,53.4,46.4,29.80,SE,135,0.0,0.0,77,0.00,,,0.00,WUHU216HW,2013-10-08 15:27:00,
2013-10-08 08:32:00,53.7,46.7,29.80,SE,135,0.0,0.0,77,0.00,,,0.00,WUHU216HW,2013-10-08 15:32:00,
2013-10-08 08:37:00,53.9,47.2,29.80,SE,135,0.0,0.0,78,0.00,,,0.00,WUHU216HW,2013-10-08 15:37:00,
2013-10-08 08:42:00,54.1,47.4,29.81,SE,135,0.0,0.0,78,0.00,,,0.00,WUHU216HW,2013-10-08 15:42:00,
2013-10-08 08:47:00,54.3,47.5,29.80,SE,135,0.0,0.0,78,0.00,,,0.00,WUHU216HW,2013-10-08 15:47:00,
2013-10-08 08:52:00,54.6,48.2,29.80,SE,135,0.0,0.0,79,0.00,,,0.00,WUHU216HW,2013-10-08 15:52:00,
2013-10-08 08:57:00,55.0,48.4,29.81,SE,135,0.0,0.0,79,0.00,,,0.00,WUHU216HW,2013-10-08 15:57:00,
2013-10-08 09:02:00,55.2,48.7,29.80,SE,135,0.0,0.0,79,0.00,,,0.00,WUHU216HW,2013-10-08 16:02:00,
2013-10-08 09:07:00,55.4,48.9,29.80,SE,135,0.0,0.0,79,0.00,,,0.00,WUHU216HW,2013-10-08 16:07:00,
2013-10-08 09:12:00,55.7,49.1,29.80,SSE,158,0.0,0.0,78,0.00,,,0.00,WUHU216HW,2013-10-08 16:12:00,
2013-10-08 09:18:00,56.1,49.2,29.80,South,180,0.0,0.0,78,0.00,,,0.00,WUHU216HW,2013-10-08 16:18:00,
2013-10-08 09:23:00,56.3,49.4,29.81,South,180,0.0,0.0,78,0.00,,,0.00,WUHU216HW,2013-10-08 16:23:00,
2013-10-08 09:28:00,56.4,49.2,29.81,South,180,0.0,0.0,77,0.00,,,0.00,WUHU216HW,2013-10-08 16:28:00,
2013-10-08 09:33:00,56.8,49.6,29.80,South,180,0.0,0.0,77,0.00,,,0.00,WUHU216HW,2013-10-08 16:33:00,
2013-10-08 09:38:00,57.3,49.8,29.81,SSW,203,0.0,0.0,76,0.00,,,0.00,WUHU216HW,2013-10-08 16:38:00,
2013-10-08 09:43:00,57.7,49.8,29.81,SSW,203,0.0,0.0,75,0.00,,,0.00,WUHU216HW,2013-10-08 16:43:00,
2013-10-08 09:48:00,57.9,50.0,29.80,SW,225,0.0,0.0,75,0.00,,,0.00,WUHU216HW,2013-10-08 16:48:00,
2013-10-08 09:53:00,58.6,50.0,29.80,SSW,203,0.0,0.0,75,0.00,,,0.00,WUHU216HW,2013-10-08 16:53:00,
2013-10-08 09:58:00,58.8,50.5,29.81,SSW,203,0.0,0.0,74,0.00,,,0.00,WUHU216HW,2013-10-08 16:58:00,
2013-10-08 10:03:00,58.8,50.1,29.81,SSW,203,0.0,0.0,73,0.00,,,0.00,WUHU216HW,2013-10-08 17:03:00,
2013-10-08 10:08:00,59.3,50.3,29.80,SW,225,1.3,1.3,72,0.00,,,0.00,WUHU216HW,2013-10-08 17:08:00,
2013-10-08 10:13:00,59.7,51.0,29.80,SSE,158,0.0,1.3,73,0.00,,,0.00,WUHU216HW,2013-10-08 17:13:00,
2013-10-08 10:18:00,60.0,51.0,29.81,South,180,0.0,1.3,72,0.00,,,0.00,WUHU216HW,2013-10-08 17:18:00,
2013-10-08 10:23:00,60.6,51.2,29.81,South,180,0.0,0.0,71,0.00,,,0.00,WUHU216HW,2013-10-08 17:23:00,
2013-10-08 10:29:00,60.8,51.4,29.81,SSE,158,0.0,0.0,71,0.00,,,0.00,WUHU216HW,2013-10-08 17:29:00,
2013-10-08 10:34:00,60.9,51.2,29.81,SW,225,0.0,0.0,70,0.00,,,0.00,WUHU216HW,2013-10-08 17:34:00,
2013-10-08 10:39:00,61.5,51.7,29.81,SW,225,0.0,0.0,70,0.00,,,0.00,WUHU216HW,2013-10-08 17:39:00,
2013-10-08 10:44:00,61.5,51.3,29.80,SW,225,0.0,0.0,69,0.00,,,0.00,WUHU216HW,2013-10-08 17:44:00,
2013-10-08 10:49:00,61.5,50.9,29.81,SW,225,0.0,0.0,68,0.00,,,0.00,WUHU216HW,2013-10-08 17:49:00,
2013-10-08 10:54:00,61.7,50.6,29.81,SW,225,0.0,0.0,67,0.00,,,0.00,WUHU216HW,2013-10-08 17:54:00,
2013-10-08 10:59:00,62.0,50.3,29.81,SSW,203,0.0,0.0,66,0.00,,,0.00,WUHU216HW,2013-10-08 17:59:00,
2013-10-08 11:04:00,62.2,50.3,29.80,South,180,0.0,0.0,65,0.00,,,0.00,WUHU216HW,2013-10-08 18:04:00,
2013-10-08 11:09:00,62.4,50.0,29.80,SW,225,0.0,0.0,64,0.00,,,0.00,WUHU216HW,2013-10-08 18:09:00,
2013-10-08 11:14:00,62.7,50.6,29.81,SSW,203,0.0,0.0,65,0.00,,,0.00,WUHU216HW,2013-10-08 18:14:00,
2013-10-08 11:19:00,62.7,50.3,29.80,SSW,203,0.0,2.4,64,0.00,,,0.00,WUHU216HW,2013-10-08 18:19:00,
2013-10-08 11:24:00,63.1,50.2,29.80,SSW,203,0.0,2.4,63,0.00,,,0.00,WUHU216HW,2013-10-08 18:24:00,
2013-10-08 11:29:00,63.3,50.6,29.80,SSE,158,0.0,0.0,63,0.00,,,0.00,WUHU216HW,2013-10-08 18:29:00,
2013-10-08 11:34:00,64.0,50.7,29.80,ESE,113,0.0,0.0,62,0.00,,,0.00,WUHU216HW,2013-10-08 18:34:00,
2013-10-08 11:40:00,64.4,50.1,29.80,SW,225,0.0,0.0,60,0.00,,,0.00,WUHU216HW,2013-10-08 18:40:00,
2013-10-08 11:45:00,64.7,49.0,29.79,SW,225,0.0,0.4,57,0.00,,,0.00,WUHU216HW,2013-10-08 18:45:00,
2013-10-08 11:50:00,64.7,48.7,29.79,SSW,203,0.0,0.4,56,0.00,,,0.00,WUHU216HW,2013-10-08 18:50:00,
2013-10-08 11:55:00,65.1,48.9,29.79,SE,135,0.0,0.0,56,0.00,,,0.00,WUHU216HW,2013-10-08 18:55:00,
2013-10-08 12:00:00,65.4,48.8,29.79,SW,225,1.3,1.3,55,0.00,,,0.00,WUHU216HW,2013-10-08 19:00:00,
2013-10-08 12:05:00,65.8,49.1,29.79,SW,225,0.0,3.8,55,0.00,,,0.00,WUHU216HW,2013-10-08 19:05:00,
2013-10-08 12:10:00,66.2,49.5,29.79,South,180,0.0,3.8,55,0.00,,,0.00,WUHU216HW,2013-10-08 19:10:00,
2013-10-08 12:15:00,66.3,49.7,29.78,SW,225,3.5,3.5,55,0.00,,,0.00,WUHU216HW,2013-10-08 19:15:00,
2013-10-08 12:20:00,66.5,49.3,29.79,South,180,0.0,3.5,54,0.00,,,0.00,WUHU216HW,2013-10-08 19:20:00,
2013-10-08 12:25:00,66.7,49.0,29.78,SW,225,2.2,3.5,53,0.00,,,0.00,WUHU216HW,2013-10-08 19:25:00,
2013-10-08 12:30:00,66.7,48.0,29.78,SW,225,1.3,2.2,51,0.00,,,0.00,WUHU216HW,2013-10-08 19:30:00,
2013-10-08 12:35:00,66.9,47.7,29.78,SW,225,3.3,6.0,50,0.00,,,0.00,WUHU216HW,2013-10-08 19:35:00,
2013-10-08 12:41:00,66.7,47.6,29.78,West,270,4.6,6.0,50,0.00,,,0.00,WUHU216HW,2013-10-08 19:41:00,
2013-10-08 12:46:00,66.7,48.0,29.78,West,270,0.0,4.6,51,0.00,,,0.00,WUHU216HW,2013-10-08 19:46:00,
2013-10-08 12:51:00,66.7,47.6,29.78,South,180,0.0,4.6,50,0.00,,,0.00,WUHU216HW,2013-10-08 19:51:00,
2013-10-08 12:56:00,67.1,50.3,29.78,SW,225,0.0,4.2,55,0.00,,,0.00,WUHU216HW,2013-10-08 19:56:00,
2013-10-08 13:01:00,66.7,50.0,29.78,SSE,158,0.8,4.2,55,0.00,,,0.00,WUHU216HW,2013-10-08 20:01:00,
2013-10-08 13:06:00,66.7,50.0,29.78,SE,135,0.0,3.8,55,0.00,,,0.00,WUHU216HW,2013-10-08 20:06:00,
2013-10-08 13:11:00,66.9,50.1,29.77,SE,135,2.2,6.4,55,0.00,,,0.00,WUHU216HW,2013-10-08 20:11:00,
2013-10-08 13:16:00,67.1,50.1,29.77,WSW,248,2.0,6.4,55,0.00,,,0.00,WUHU216HW,2013-10-08 20:16:00,
2013-10-08 13:21:00,66.9,49.7,29.76,South,180,0.0,2.0,54,0.00,,,0.00,WUHU216HW,2013-10-08 20:21:00,
2013-10-08 13:26:00,66.7,50.0,29.76,SW,225,1.1,3.5,55,0.00,,,0.00,WUHU216HW,2013-10-08 20:26:00,
2013-10-08 13:31:00,66.5,50.3,29.76,SE,135,4.2,4.2,56,0.00,,,0.00,WUHU216HW,2013-10-08 20:31:00,
2013-10-08 13:36:00,66.5,50.3,29.75,SW,225,6.0,6.4,56,0.00,,,0.00,WUHU216HW,2013-10-08 20:36:00,
2013-10-08 13:41:00,66.7,50.5,29.75,SW,225,0.0,6.4,56,0.00,,,0.00,WUHU216HW,2013-10-08 20:41:00,
2013-10-08 13:46:00,66.5,50.0,29.75,West,270,0.0,6.0,55,0.00,,,0.00,WUHU216HW,2013-10-08 20:46:00,
2013-10-08 13:52:00,66.5,50.3,29.75,SW,225,0.0,2.9,56,0.00,,,0.00,WUHU216HW,2013-10-08 20:52:00,
2013-10-08 13:57:00,66.3,50.6,29.75,SE,135,0.0,1.5,57,0.00,,,0.00,WUHU216HW,2013-10-08 20:57:00,
2013-10-08 14:02:00,66.3,50.0,29.75,SSW,203,2.9,2.9,56,0.00,,,0.00,WUHU216HW,2013-10-08 21:02:00,
2013-10-08 14:07:00,66.0,49.3,29.75,SE,135,0.0,6.0,55,0.00,,,0.00,WUHU216HW,2013-10-08 21:07:00,
2013-10-08 14:12:00,65.8,49.1,29.74,SSE,158,2.4,6.0,55,0.00,,,0.00,WUHU216HW,2013-10-08 21:12:00,
2013-10-08 14:17:00,66.0,47.9,29.74,SW,225,6.0,6.0,52,0.00,,,0.00,WUHU216HW,2013-10-08 21:17:00,
2013-10-08 14:22:00,66.2,48.0,29.74,SW,225,4.2,6.0,52,0.00,,,0.00,WUHU216HW,2013-10-08 21:22:00,
2013-10-08 14:27:00,66.5,48.9,29.74,SSW,203,4.6,6.0,53,0.00,,,0.00,WUHU216HW,2013-10-08 21:27:00,
2013-10-08 14:32:00,66.5,48.4,29.73,SSW,203,6.4,6.4,52,0.00,,,0.00,WUHU216HW,2013-10-08 21:32:00,
2013-10-08 14:37:00,66.7,49.0,29.73,SSE,158,5.5,6.4,53,0.00,,,0.00,WUHU216HW,2013-10-08 21:37:00,
2013-10-08 14:42:00,66.3,48.2,29.73,SW,225,6.9,7.8,52,0.00,,,0.00,WUHU216HW,2013-10-08 21:42:00,
2013-10-08 14:47:00,66.3,48.2,29.73,SSW,203,5.8,7.8,52,0.00,,,0.00,WUHU216HW,2013-10-08 21:47:00,
2013-10-08 14:52:00,66.5,47.9,29.73,South,180,0.0,6.9,51,0.00,,,0.00,WUHU216HW,2013-10-08 21:52:00,
2013-10-08 14:58:00,66.3,47.7,29.73,South,180,0.0,5.8,51,0.00,,,0.00,WUHU216HW,2013-10-08 21:58:00,
2013-10-08 15:03:00,66.3,48.2,29.73,SSW,203,2.4,5.1,52,0.00,,,0.00,WUHU216HW,2013-10-08 22:03:00,
2013-10-08 15:08:00,66.3,48.2,29.73,WSW,248,7.3,7.3,52,0.00,,,0.00,WUHU216HW,2013-10-08 22:08:00,
2013-10-08 15:13:00,66.5,46.8,29.72,South,180,2.2,7.3,49,0.00,,,0.00,WUHU216HW,2013-10-08 22:13:00,
2013-10-08 15:18:00,66.3,46.0,29.72,SSE,158,1.3,8.2,48,0.00,,,0.00,WUHU216HW,2013-10-08 22:18:00,
2013-10-08 15:23:00,66.3,46.0,29.72,SW,225,6.0,8.2,48,0.00,,,0.00,WUHU216HW,2013-10-08 22:23:00,
2013-10-08 15:28:00,66.3,45.5,29.72,WSW,248,1.7,6.0,47,0.00,,,0.00,WUHU216HW,2013-10-08 22:28:00,
2013-10-08 15:33:00,65.8,46.1,29.73,SW,225,7.8,7.8,49,0.00,,,0.00,WUHU216HW,2013-10-08 22:33:00,
2013-10-08 15:38:00,65.4,45.8,29.72,SSE,158,0.0,7.8,49,0.00,,,0.00,WUHU216HW,2013-10-08 22:38:00,
2013-10-08 15:43:00,65.3,45.6,29.72,SSE,158,5.3,9.8,49,0.00,,,0.00,WUHU216HW,2013-10-08 22:43:00,
2013-10-08 15:48:00,65.4,45.8,29.73,SSW,203,8.2,9.8,48,0.00,,,0.00,WUHU216HW,2013-10-08 22:48:00,
2013-10-08 15:53:00,65.1,45.4,29.72,WSW,248,5.1,9.3,49,0.00,,,0.00,WUHU216HW,2013-10-08 22:53:00,
2013-10-08 15:58:00,64.9,45.8,29.72,SSW,203,3.5,8.2,50,0.00,,,0.00,WUHU216HW,2013-10-08 22:58:00,
2013-10-08 16:03:00,64.7,45.6,29.72,SSW,203,6.0,10.9,51,0.00,,,0.00,WUHU216HW,2013-10-08 23:03:00,
2013-10-08 16:09:00,64.0,44.9,29.72,SSE,158,6.4,10.9,50,0.00,,,0.00,WUHU216HW,2013-10-08 23:09:00,
2013-10-08 16:14:00,64.0,44.9,29.72,SW,225,5.3,7.1,50,0.00,,,0.00,WUHU216HW,2013-10-08 23:14:00,
2013-10-08 16:19:00,64.0,44.8,29.72,SW,225,4.4,6.9,50,0.00,,,0.00,WUHU216HW,2013-10-08 23:19:00,
2013-10-08 16:24:00,64.0,45.4,29.71,SSW,203,5.8,5.8,51,0.00,,,0.00,WUHU216HW,2013-10-08 23:24:00,
2013-10-08 16:29:00,63.5,44.9,29.71,South,180,10.7,10.7,51,0.00,,,0.00,WUHU216HW,2013-10-08 23:29:00,
2013-10-08 16:34:00,63.1,44.6,29.71,SSE,158,0.0,10.7,51,0.00,,,0.00,WUHU216HW,2013-10-08 23:34:00,
2013-10-08 16:39:00,63.1,44.6,29.71,SSW,203,5.1,10.7,51,0.00,,,0.00,WUHU216HW,2013-10-08 23:39:00,
2013-10-08 16:44:00,62.7,45.3,29.71,SE,135,1.5,5.1,53,0.00,,,0.00,WUHU216HW,2013-10-08 23:44:00,
2013-10-08 16:49:00,63.1,46.1,29.70,SE,135,7.3,7.3,54,0.00,,,0.00,WUHU216HW,2013-10-08 23:49:00,
2013-10-08 16:54:00,62.9,45.9,29.70,South,180,6.9,8.7,54,0.00,,,0.00,WUHU216HW,2013-10-08 23:54:00,
2013-10-08 16:59:00,62.4,45.9,29.70,SE,135,5.3,8.7,55,0.00,,,0.00,WUHU216HW,2013-10-08 23:59:00,
2013-10-08 17:04:00,62.2,45.8,29.70,WSW,248,1.7,7.3,55,0.00,,,0.00,WUHU216HW,2013-10-09 00:04:00,
2013-10-08 17:10:00,62.2,46.2,29.70,SSE,158,0.0,7.3,56,0.00,,,0.00,WUHU216HW,2013-10-09 00:10:00,
2013-10-08 17:15:00,61.8,45.9,29.70,SSE,158,1.1,7.1,56,0.00,,,0.00,WUHU216HW,2013-10-09 00:15:00,
2013-10-08 17:20:00,61.7,46.2,29.69,South,180,2.4,5.1,57,0.00,,,0.00,WUHU216HW,2013-10-09 00:20:00,
2013-10-08 17:25:00,61.5,47.1,29.69,SSW,203,2.0,2.4,59,0.00,,,0.00,WUHU216HW,2013-10-09 00:25:00,
2013-10-08 17:30:00,61.5,48.0,29.69,West,270,0.0,6.9,61,0.00,,,0.00,WUHU216HW,2013-10-09 00:30:00,
2013-10-08 17:35:00,61.5,48.0,29.69,South,180,4.9,6.9,61,0.00,,,0.00,WUHU216HW,2013-10-09 00:35:00,
2013-10-08 17:40:00,61.5,48.0,29.69,SSW,203,1.1,4.9,61,0.00,,,0.00,WUHU216HW,2013-10-09 00:40:00,
2013-10-08 17:45:00,61.5,48.0,29.68,SW,225,6.0,6.0,61,0.00,,,0.00,WUHU216HW,2013-10-09 00:45:00,
2013-10-08 17:50:00,61.5,48.0,29.68,South,180,4.2,6.0,61,0.00,,,0.00,WUHU216HW,2013-10-09 00:50:00,
2013-10-08 17:55:00,61.3,47.4,29.67,SE,135,0.0,5.5,60,0.00,,,0.00,WUHU216HW,2013-10-09 00:55:00,
2013-10-08 18:00:00,61.1,47.2,29.67,SW,225,4.4,4.4,60,0.00,,,0.00,WUHU216HW,2013-10-09 01:00:00,
2013-10-08 18:05:00,60.9,47.1,29.67,SSW,203,6.7,6.7,60,0.00,,,0.00,WUHU216HW,2013-10-09 01:05:00,
2013-10-08 18:10:00,60.9,47.1,29.68,SSE,158,0.6,6.7,60,0.00,,,0.00,WUHU216HW,2013-10-09 01:10:00,
2013-10-08 18:15:00,60.6,46.7,29.68,SSW,203,4.2,6.7,60,0.00,,,0.00,WUHU216HW,2013-10-09 01:15:00,
2013-10-08 18:21:00,60.6,47.1,29.67,WSW,248,5.5,5.5,61,0.00,,,0.00,WUHU216HW,2013-10-09 01:21:00,
2013-10-08 18:26:00,60.4,46.9,29.67,SW,225,4.2,5.5,61,0.00,,,0.00,WUHU216HW,2013-10-09 01:26:00,
2013-10-08 18:31:00,60.4,47.4,29.67,SW,225,4.6,5.5,62,0.00,,,0.00,WUHU216HW,2013-10-09 01:31:00,